[[{"header":{"parameterUnit":"m.s-1","parameterCategory":1,"la1":30.2991,"la2":30.254,"lo1":-89.0895,"lo2":-89.0444,"dy":0.0017,"dx":0.0017,"nx":28,"ny":28,"refTime":"2024-07-31T21:00:00:Z","depth":0,"parameterNumber":2,"parameterNumberName":"U-component_of_WINDS"},"data":[0,0,0,0,0,0,0,0,0,0,0,0,0,0,0,0,0,0,0,0,0,0,0,0,0,0,0,0,0,0,0,0,0,0,0,0,0,0,0,0,0,0,0,0,0,0,0,0,0,0,0,0,0,0,0,0,0,0,1.4694,1.4695,0,1.4792,1.4793,1.4794,1.4807,1.4807,1.4806,1.4805,1.491,1.4913,1.4917,0,0,0,0,0,0,0,0,0,0,0,0,0,1.4527,1.453,1.4694,1.4696,1.4697,1.4792,1.4793,1.4794,1.4808,1.4806,1.4805,1.4804,1.4909,1.4913,1.4917,0,0,0,0,0,0,0,0,0,0,0,0,0,1.4609,1.4531,1.4694,1.4715,1.4718,1.4791,1.4793,1.4795,1.4808,1.4806,1.4805,1.4804,1.4907,1.4912,1.4918,1.4979,0,0,1.4935,1.4937,0,0,0,0,0,0,0,0,1.4605,1.4615,1.471,1.4713,1.4717,1.4786,1.4772,1.4857,1.4808,1.4774,1.4805,1.4803,1.487,1.4878,1.49,1.4984,1.4989,1.4935,1.4938,1.4941,1.4942,0,0,0,0,0,0,0,1.4599,1.4611,1.4733,1.4712,1.4716,1.4721,1.4732,1.4788,1.4829,1.4777,1.4778,1.4789,1.4872,1.4895,1.4903,1.499,1.4935,1.494,1.4943,1.4945,1.5134,1.5136,0,0,0,0,0,0,1.4589,1.4607,1.473,1.4736,1.4656,1.4725,1.4737,1.4765,1.4828,1.4836,1.479,1.4789,1.4886,1.4896,1.4906,1.4985,1.4941,1.4946,1.4949,1.5132,1.5134,1.5136,0,0,0,0,0,0,1.4585,1.4599,1.4726,1.4672,1.4688,1.473,1.4762,1.4768,1.4791,1.4838,1.4846,1.4806,1.4885,1.4899,1.4962,1.4989,1.4948,1.4953,1.513,1.5133,1.5135,1.5141,0,0,0,0,0,0,1.458,1.4598,1.462,1.4672,1.4691,1.4778,1.4763,1.4771,1.48,1.48,1.4855,1.4863,1.4885,1.4953,1.4967,1.4996,1.4958,1.5128,1.5131,1.5134,1.5139,1.5144,1.5148,0,0,0,0,0,1.4574,1.4618,1.4621,1.4636,1.4719,1.4779,1.479,1.4813,1.4802,1.4826,1.4856,1.4861,1.4983,1.496,1.4975,1.5006,1.5127,1.513,1.5134,1.5137,1.5143,1.5148,0,0,0,0,0,0,1.457,1.4625,1.4629,1.4691,1.473,1.4781,1.4812,1.4819,1.4863,1.4861,1.489,1.4902,1.4965,1.4991,1.4964,1.507,1.5054,1.5061,1.5051,1.5057,1.5061,1.5054,1.4962,0,0,0,0,0,1.4576,1.4618,1.4665,1.4715,1.4735,1.477,1.4797,1.4811,1.4854,1.4871,1.4906,1.4948,1.4997,1.5028,1.5075,1.5142,1.5156,1.5171,1.5176,1.5179,1.5186,1.5227,1.5235,1.5149,1.5149,1.5149,0,0,1.4589,1.4625,1.465,1.4716,1.4747,1.4793,1.4784,1.4831,1.4866,1.4879,1.4941,1.4968,1.5018,1.5084,1.5115,1.5108,1.5212,1.5184,1.5187,1.5191,1.5232,1.524,1.5247,1.5152,1.5151,1.5151,0,0,1.4638,1.4667,1.4714,1.4746,1.4794,1.4818,1.4829,1.488,1.4898,1.496,1.4971,1.5014,1.5095,1.5131,1.516,1.5224,1.5231,1.5238,1.5263,1.5302,1.5309,1.5315,1.5341,1.5349,1.5244,1.5244,1.5244,0,1.4649,1.4716,1.4737,1.4786,1.4815,1.4827,1.4876,1.4907,1.4969,1.499,1.4981,1.5086,1.512,1.5196,1.5212,1.5233,1.525,1.5233,1.5306,1.5312,1.5318,1.5343,1.5352,1.5245,1.5245,1.5245,1.5245,0,1.4729,1.4775,1.4807,1.4866,1.4899,1.4947,1.4979,1.501,1.5023,1.5048,1.5113,1.5154,1.5211,1.5229,1.5242,1.5308,1.5303,1.5299,1.5284,1.5327,1.5351,1.536,1.5246,1.5246,1.5246,1.5245,0,0,1.4777,1.4848,1.4859,1.4887,1.4942,1.498,1.503,1.5084,1.5112,1.5154,1.5199,1.5268,1.5266,1.5299,1.5315,1.535,1.5401,1.5343,1.5344,1.5354,1.5481,1.5485,1.5495,1.5406,1.5407,1.5409,1.5478,0,1.4834,1.4921,1.4943,1.5019,1.5065,1.5077,1.5122,1.5161,1.5187,1.523,1.5259,1.5309,1.53,1.5321,1.5355,1.5388,1.5428,1.5383,1.5451,1.5453,1.544,1.5507,1.5511,1.5574,1.5487,1.5488,1.5489,0,1.4911,1.4955,1.5035,1.5086,1.5106,1.5145,1.5198,1.5238,1.5285,1.5301,1.5338,1.5352,1.5408,1.5388,1.5467,1.5436,1.5465,1.5485,1.5489,1.5498,1.5475,1.552,1.5594,1.5604,1.5504,1.5503,1.5502,0,1.4942,1.502,1.5079,1.5102,1.5163,1.5191,1.5217,1.5262,1.5294,1.5341,1.5363,1.5415,1.5445,1.5487,1.5516,1.5498,1.5593,1.5575,1.5611,1.561,1.5632,1.563,1.5713,1.5646,1.5646,1.5646,1.5646,0,1.5004,1.5053,1.5094,1.5131,1.5187,1.5213,1.5269,1.5297,1.5337,1.5381,1.5395,1.5437,1.5471,1.5518,1.5541,1.5605,1.5617,1.5634,1.564,1.5634,1.5632,1.5655,1.5653,1.5649,1.5648,1.5648,1.5647,0,1.5048,1.5077,1.5143,1.5194,1.5209,1.5249,1.5294,1.5332,1.5357,1.5413,1.5428,1.5469,1.5526,1.5558,1.5629,1.5645,1.5716,1.5719,1.57,1.5703,1.5738,1.5735,1.584,1.5857,1.5776,1.5777,1.5778,0,1.5087,1.5125,1.5181,1.5211,1.5238,1.5286,1.5318,1.5346,1.538,1.5437,1.5468,1.5525,1.5572,1.5662,1.57,1.5755,1.5761,1.5794,1.5769,1.5763,1.5764,1.5763,1.5768,1.5798,1.5799,1.58,1.58,0,1.5153,1.5166,1.5211,1.5263,1.5302,1.5344,1.5386,1.541,1.5445,1.5483,1.554,1.5576,1.5649,1.5706,1.5765,1.5795,1.5805,1.5807,1.5819,1.5815,1.5803,1.5813,1.5714,1.5805,1.5805,1.5804,1.5804,1.5804,1.5198,1.5233,1.5279,1.533,1.5364,1.5404,1.5442,1.5473,1.552,1.5581,1.5595,1.5656,1.5704,1.5783,1.5815,1.5865,1.5859,1.5876,1.588,1.5884,1.5887,1.5793,1.5875,1.5875,1.5875,1.5875,1.5875,0,1.5267,1.5297,1.5344,1.5402,1.5443,1.5447,1.5494,1.5529,1.5582,1.5625,1.5671,1.5738,1.5795,1.5837,1.5895,1.5927,1.5933,1.5942,1.5941,1.5948,1.5887,1.5872,1.5936,1.5936,1.5936,1.5936,1.5936,1.5936,1.5308,1.537,1.5388,1.5468,1.5498,1.5557,1.5584,1.5622,1.5657,1.5731,1.5777,1.5804,1.5848,1.5909,1.5962,1.5973,1.5995,1.6004,1.6016,1.5959,1.5952,1.5946,1.5932,1.6008,1.6008,1.6073,1.6074,1.6074]},{"header":{"parameterUnit":"m.s-1","parameterCategory":1,"la1":30.2991,"la2":30.254,"lo1":-89.0895,"lo2":-89.0444,"dy":0.0017,"dx":0.0017,"nx":28,"ny":28,"refTime":"2024-07-31T21:00:00:Z","depth":0,"parameterNumber":3,"parameterNumberName":"V-component_of_WINDS"},"data":[0,0,0,0,0,0,0,0,0,0,0,0,0,0,0,0,0,0,0,0,0,0,0,0,0,0,0,0,0,0,0,0,0,0,0,0,0,0,0,0,0,0,0,0,0,0,0,0,0,0,0,0,0,0,0,0,0,0,1.321,1.3211,0,1.3283,1.3284,1.3284,1.3286,1.3285,1.3284,1.3283,1.3356,1.3358,1.3361,0,0,0,0,0,0,0,0,0,0,0,0,0,1.307,1.3072,1.321,1.3211,1.3212,1.3283,1.3284,1.3285,1.3286,1.3285,1.3284,1.3283,1.3355,1.3358,1.3361,0,0,0,0,0,0,0,0,0,0,0,0,0,1.3135,1.3073,1.321,1.3221,1.3223,1.3282,1.3284,1.3285,1.3286,1.3285,1.3283,1.3282,1.3354,1.3358,1.3362,1.3415,0,0,1.3375,1.3376,0,0,0,0,0,0,0,0,1.3131,1.314,1.3219,1.3221,1.3223,1.3274,1.3261,1.3328,1.3286,1.3262,1.3283,1.3282,1.333,1.3336,1.3352,1.3418,1.3421,1.3375,1.3377,1.3379,1.338,0,0,0,0,0,0,0,1.3127,1.3137,1.3239,1.322,1.3222,1.3221,1.3229,1.3273,1.3302,1.3264,1.3264,1.3273,1.333,1.3348,1.3354,1.3422,1.3375,1.3379,1.3381,1.3383,1.353,1.3532,0,0,0,0,0,0,1.312,1.3133,1.3237,1.3241,1.3173,1.3225,1.3234,1.3259,1.3302,1.3307,1.3274,1.3273,1.3342,1.3349,1.3356,1.3418,1.3379,1.3383,1.3386,1.3529,1.3531,1.3532,0,0,0,0,0,0,1.3117,1.313,1.3234,1.3187,1.3201,1.3229,1.3257,1.3261,1.3279,1.331,1.3314,1.3287,1.3341,1.335,1.3399,1.3421,1.3385,1.3389,1.3527,1.3529,1.3531,1.3543,0,0,0,0,0,0,1.3113,1.3129,1.315,1.3188,1.3203,1.3277,1.3258,1.3263,1.3286,1.3285,1.3323,1.3328,1.3341,1.3393,1.3403,1.3426,1.3392,1.3525,1.3528,1.3531,1.3541,1.3546,1.3549,0,0,0,0,0,1.3108,1.3151,1.3151,1.3164,1.3231,1.3278,1.3287,1.3301,1.3288,1.3309,1.3328,1.3327,1.3417,1.3398,1.341,1.3434,1.3524,1.3527,1.353,1.3539,1.3545,1.3549,0,0,0,0,0,0,1.3116,1.3157,1.3157,1.3214,1.3242,1.3278,1.3305,1.3306,1.3339,1.3337,1.3352,1.336,1.3408,1.3426,1.3404,1.3484,1.3469,1.3474,1.3471,1.3477,1.3481,1.3475,1.3395,0,0,0,0,0,1.3124,1.316,1.3193,1.324,1.3254,1.3277,1.3298,1.3306,1.3336,1.3348,1.3371,1.34,1.3434,1.3457,1.349,1.3544,1.355,1.3565,1.357,1.3573,1.3577,1.3603,1.3609,1.3543,1.3543,1.3542,0,0,1.3141,1.3168,1.319,1.3242,1.3265,1.33,1.3287,1.3326,1.3352,1.3354,1.3401,1.3418,1.3451,1.3501,1.3525,1.3518,1.3597,1.3577,1.3579,1.3582,1.3607,1.3613,1.3619,1.3545,1.3544,1.3544,0,0,1.3191,1.3216,1.3255,1.3278,1.3313,1.3327,1.3337,1.3372,1.3383,1.3431,1.3432,1.3462,1.3522,1.3544,1.3563,1.3616,1.3616,1.3627,1.3648,1.3673,1.3679,1.3683,1.37,1.3706,1.3631,1.3631,1.3631,0,1.3208,1.3262,1.3276,1.3313,1.3335,1.3338,1.3377,1.3398,1.3442,1.3456,1.3448,1.352,1.3543,1.3596,1.3609,1.3625,1.3634,1.3622,1.3677,1.3682,1.3686,1.3702,1.3708,1.3632,1.3632,1.3632,1.3632,0,1.3279,1.3317,1.3344,1.3385,1.341,1.3449,1.3466,1.3489,1.3494,1.3509,1.3554,1.3581,1.3618,1.3632,1.3638,1.3685,1.3679,1.3674,1.3658,1.3693,1.3708,1.3715,1.3634,1.3633,1.3633,1.3633,0,0,1.3337,1.3383,1.3393,1.341,1.3447,1.3475,1.3512,1.3548,1.3566,1.3596,1.3625,1.3674,1.3668,1.3689,1.3697,1.372,1.3756,1.3711,1.3711,1.3716,1.3807,1.381,1.3817,1.3756,1.3757,1.3758,1.3803,0,1.3388,1.3455,1.3467,1.3524,1.3556,1.3558,1.359,1.3615,1.3629,1.3657,1.3672,1.3705,1.3696,1.3708,1.3731,1.3747,1.3774,1.3744,1.3782,1.3783,1.3772,1.3825,1.3829,1.387,1.3809,1.381,1.3811,0,1.3458,1.3488,1.3548,1.3577,1.3591,1.362,1.3651,1.368,1.3707,1.3715,1.3737,1.3742,1.3777,1.376,1.3808,1.3787,1.3803,1.3813,1.3815,1.3818,1.3798,1.3827,1.3884,1.389,1.3821,1.382,1.382,0,1.349,1.3546,1.3588,1.3603,1.3639,1.3658,1.3674,1.37,1.3719,1.3747,1.3759,1.3791,1.3808,1.3832,1.3843,1.383,1.389,1.3874,1.3896,1.3895,1.3908,1.3906,1.3966,1.3921,1.392,1.392,1.392,0,1.3546,1.3582,1.3602,1.3628,1.3668,1.368,1.3718,1.3733,1.3756,1.3783,1.3787,1.3812,1.3827,1.3853,1.3863,1.3899,1.3908,1.3914,1.3916,1.3913,1.3912,1.3923,1.3919,1.3922,1.3922,1.3921,1.3921,0,1.3589,1.3605,1.365,1.3679,1.3687,1.3715,1.3739,1.3763,1.3776,1.381,1.3819,1.3838,1.387,1.3884,1.3923,1.3929,1.397,1.3971,1.3961,1.3961,1.3981,1.3978,1.4048,1.4057,1.4007,1.4008,1.4008,0,1.3623,1.365,1.3682,1.37,1.3716,1.3746,1.3765,1.3777,1.3797,1.3828,1.3848,1.3879,1.3905,1.3954,1.3971,1.4,1.4,1.4023,1.4005,1.4,1.3998,1.3996,1.3997,1.4026,1.4026,1.4027,1.4027,0,1.368,1.3685,1.3714,1.3743,1.3766,1.3791,1.3815,1.3829,1.3844,1.3866,1.3898,1.3918,1.3956,1.3986,1.4016,1.403,1.403,1.4032,1.4038,1.4035,1.4027,1.4029,1.3968,1.4031,1.403,1.403,1.403,1.403,1.3718,1.3741,1.3766,1.3796,1.3815,1.3836,1.3859,1.3873,1.39,1.3933,1.3938,1.3971,1.3994,1.4033,1.4048,1.4073,1.4068,1.4077,1.4079,1.4081,1.4081,1.4024,1.4079,1.4079,1.4079,1.4079,1.4079,0,1.3773,1.3788,1.3816,1.3848,1.3871,1.3869,1.3894,1.3913,1.3943,1.3964,1.3989,1.4023,1.4052,1.407,1.4098,1.4114,1.4114,1.4121,1.4119,1.4122,1.4086,1.4076,1.412,1.412,1.412,1.412,1.412,1.412,1.3804,1.3842,1.385,1.3896,1.3911,1.3943,1.3957,1.3976,1.3993,1.4031,1.4055,1.4066,1.4086,1.4115,1.414,1.4144,1.4153,1.4159,1.4163,1.4129,1.4125,1.4121,1.4112,1.4162,1.4162,1.4197,1.4197,1.4198]}]]